Terug naar catalogus

STARLINK-34939

ActiefCommunicatieSSO
NORAD 65183·PAYLOAD·🇺🇸 United States

Gelanceerd Aug 14, 2025 vanaf Vandenberg Space Force Base

Loading…

Volgende Passages (komende 24 uur)

TLE

VersSource: CelesTrak SupGP

Epoch: Sep 15, 2026, 03:00 UTC

1 65183C 25175K   26258.12548611  .00034149  00000+0  10583-2 0  2581
2 65183  97.2846 127.2478 0001821  96.9571 264.9376 15.33474278    13

Volg STARLINK-34939 in realtime met AllMySat

Download on the App Store